Regional Weather Roundup
Issued by NWS

Home | Current Version | Previous Version | Text Only | Print | Product List | Glossary Off
Versions: 1 2 3 4 5 6 7 8 9 10 11 12 13 14 15 16 17 18 19 20 21 22 23 24 25 26 27

000
ASUS45 KBOU 230307
RWRCO

WEATHER ROUNDUP FOR COLORADO
NATIONAL WEATHER SERVICE DENVER/BOULDER CO
900 PM MDT MON AUG 22 2016

NOTE: "FAIR" INDICATES FEW OR NO CLOUDS BELOW 12000 FEET WITH NO
SIGNIFICANT WEATHER AND/OR OBSTRUCTIONS TO VISIBILITY.

COZ001>005-013-030-031-230400-
...NORTHWEST COLORADO...

CITY           SKY/WX    TMP DP  RH WIND       PRES   REMARKS
CRAIG          FAIR      62  44  51 S3        30.11R
HAYDEN         MOCLDY    66  37  34 E6        30.13R
MEEKER         FAIR      65  40  39 CALM      30.14R
MOUNT WERNER   NOT AVBL
STEAMBOAT SPGS MOCLDY    61  39  44 NW3       30.16R
WALDEN         FAIR      54  41  62 SE6       30.26R
$$

COZ006>008-011-230400-
...WEST CENTRAL VALLEYS...

CITY           SKY/WX    TMP DP  RH WIND       PRES   REMARKS
GRAND JUNCTION CLOUDY    66  52  60 NW9       30.11R
MONTROSE       FAIR      65  44  46 E12       30.17R
EAGLE          FAIR      64  45  48 W13G20    30.19R
RIFLE          FAIR      65  49  56 SE14      30.12R
DELTA          NOT AVBL
NUCLA          MOCLDY    61  54  77 E6        30.20R THUNDER
$$

COZ017>023-064>068-230400-
...SOUTHWEST COLORADO...

CITY           SKY/WX    TMP DP  RH WIND       PRES   REMARKS
DURANGO        FAIR      58  53  84 E6        30.21R
CORTEZ         FAIR      59  49  69 S6        30.15R
PAGOSA SPRINGS MOCLDY    53  51  91 CALM      30.29R
TELLURIDE      CLOUDY    51  48  89 SE3       30.37R
WOLF CREEK PAS CLOUDY    37  36  93 SW7       30.54R
$$

COZ009-010-012-014-032>034-037-058>063-230400-
...CENTRAL COLORADO...

CITY           SKY/WX    TMP DP  RH WIND       PRES   REMARKS
ASPEN          FAIR      61  42  49 S5        30.27R
BUENA VISTA    CLOUDY    60  37  41 W10       30.26S
COPPER MTN     CLOUDY    46  34  61 NW3       30.53R
BERTHOUD PASS  MOCLDY    37  27  65 N12G23    30.55R
COTTONWOOD PAS CLOUDY    54  36  50 SW15G21   30.39R
GUNNISON       MOCLDY    54  46  76 CALM      30.34R
KREMMLING      FAIR      57  37  47 CALM      30.22R
LEADVILLE      CLOUDY    48  40  73 E3        30.38R
MONARCH PASS   FOG       37  37 100 SW15      30.61S VSB<1/4
SALIDA         MOCLDY    65  40  39 NW6       30.30S
SUNLIGHT       FAIR      46  39  76 W3        30.47S
WILKERSON PASS NOT AVBL
$$

COZ069>075-230400-
...SAN LUIS VALLEY/SANGRE DE CRISTO MOUNTAINS...

CITY           SKY/WX    TMP DP  RH WIND       PRES   REMARKS
ALAMOSA        MOCLDY    58  42  55 W8        30.24R
LA VETA PASS   MOCLDY    46  36  66 S12G17    30.40R
SAGUACHE       CLOUDY    55  41  58 NW13      30.28R
$$

COZ035-036-038>040-230400-
...NORTHERN COLORADO FRONT RANGE...

CITY           SKY/WX    TMP DP  RH WIND       PRES   REMARKS
DENVER INTL AP MOCLDY    73  41  31 W9        29.99R
DMNS CITY PARK   N/A     75  39  28 W7G13     30.00R
AURORA         MOCLDY    74  33  22 NW5       30.01S
FRONT RANGE AP MOCLDY    72  39  30 W7        30.01R
ERIE MUNI ARPT FAIR      72  38  29 SW3       29.99R
BOULDER MUN AP FAIR      72  37  28 CALM      30.00R
CENTENNIAL     MOCLDY    78  28  16 N8        30.03S
BROOMFIELD     MOCLDY    75  39  27 SW9       30.03R
FORT COLLINS   FAIR      73  39  29 CALM      29.95S
LONGMONT       FAIR      71  41  34 SW5       30.00R
$$

COZ041-046-047-076>085-087-088-230400-
...PIKES PEAK/PALMER DIVIDE AND SOUTHERN FOOTHILLS...

CITY           SKY/WX    TMP DP  RH WIND       PRES   REMARKS
COLO. SPRINGS  MOCLDY    72  39  30 NW12      30.07R
A. F. ACADEMY  FAIR      64  42  46 N6        30.09R
SCHRIEVER AFB  NOT AVBL
ELLICOTT       NOT AVBL
FALCON         FAIR      67  36  31 NW8       30.11S
FORT CARSON    MOCLDY    73  38  27 W6        30.05R
LIMON          FAIR      64  41  42 W9        29.98R
MONUMENT HILL  FAIR      59  37  44 W8        30.14S
TRINIDAD       CLOUDY    70  42  36 NW18G24   30.07R
$$

COZ042>045-048>051-090-091-230400-
...NORTHEAST COLORADO...

CITY           SKY/WX    TMP DP  RH WIND       PRES   REMARKS
GREELEY ARPT   FAIR      64  46  52 W7        29.95R
AKRON          FAIR      73  48  41 SE9       29.92R
BURLINGTON     FAIR      73  57  57 E15       29.93R
WRAY           NOT AVBL
STERLING       FAIR      72  54  53 SE3       29.86R
HOLYOKE        FAIR      77  59  53 SE12      29.89R
FORT MORGAN    FAIR      69  48  47 SE3       29.91R
$$

COZ086-089-092>099-230400-
...SOUTHEAST COLORADO...

CITY           SKY/WX    TMP DP  RH WIND       PRES   REMARKS
PUEBLO         FAIR      80  41  24 NW20G26   29.93R
LA JUNTA       FAIR      80  53  39 SW8       29.89R
LAMAR          FAIR      78  56  46 S18       29.86R
SPRINGFIELD      N/A     73  55  53 S18G26    29.97R
$$




USA.gov is the U.S. government's official web portal to all federal, state and local government web resources and services.